Weather History for Phnom Penh, Cambodia

Change the Weather History Date:

Friday, May 24, 2013

  Actual Average Record
Temperature  
Mean Temperature 88 °F -  
Max Temperature 96 °F 89 °F 96 °F (2002)
Min Temperature 80 °F 77 °F 77 °F (2008)
Cooling Degree Days 23    
Growing Degree Days 38 (Base 50)    
Moisture  
Dew Point 74 °F    
Average Humidity 65    
Maximum Humidity 89    
Minimum Humidity 39    
Precipitation  
Precipitation 0.00 in - - ()
Sea Level Pressure  
Sea Level Pressure 29.75 in    
Wind  
Wind Speed 6 mph ()    
Max Wind Speed 13 mph    
Max Gust Speed 23 mph    
Visibility 5.7 miles    
Events Rain    
Averages and records for this station are not official NWS values.
T = Trace of Precipitation, MM = Missing Value Source: Averaged Metar Reports

Daily Weather History Graph

Daily Weather History Graph

Search for Another Location

Airport:

Trip Planner

Search our weather history database for the weather conditions in past years. The results will help you decide how hot, cold, wet, or windy it might be!

Date:

Astronomy

May. 24, 2013 Rise Set
Actual Time 5:36 AM ICT 6:18 PM ICT
Civil Twilight 5:13 AM ICT 6:41 PM ICT
Nautical Twilight 4:46 AM ICT 7:08 PM ICT
Astronomical Twilight 4:19 AM ICT 7:35 PM ICT
Moon 5:31 PM ICT (5/24) 4:29 AM ICT (5/24)
Length of Visible Light 13h 28m
Length of Day
12h 42m
Waxing Gibbous, 99% of the Moon is Illuminated
May 24
Waxing Gibbous
May 25
Full
Jun 1
Last Quarter
Jun 8
New
Jun 17
First Quarter

Hourly Weather History & Observations

Time (ICT) Temp. Heat Index Dew Point Humidity Pressure Visibility Wind Dir Wind Speed Gust Speed Precip Events Conditions
12:00 AM 84.2 °F 92.3 °F 75.2 °F 74% 29.80 in 5.6 mi South 3.5 mph - N/A   Partly Cloudy
12:30 AM 86.0 °F 95.1 °F 75.2 °F 70% 29.80 in 5.6 mi SSW 3.5 mph - N/A   Partly Cloudy
1:00 AM 86.0 °F 95.1 °F 75.2 °F 70% 29.80 in 5.6 mi SSW 5.8 mph - N/A   Partly Cloudy
6:00 AM 80.6 °F 87.1 °F 77.0 °F 89% 29.74 in 6.2 mi South 4.6 mph - N/A   Scattered Clouds
7:00 AM 82 °F - 71 °F 62% 29.79 in 6 mi SE 4.5 mph - -   Scattered Clouds
7:00 AM 84.2 °F 94.1 °F 77.0 °F 79% 29.77 in 6.2 mi South 5.8 mph - N/A   Scattered Clouds
7:30 AM 84.2 °F 92.3 °F 75.2 °F 74% 29.77 in 6.2 mi South 6.9 mph - N/A   Scattered Clouds
8:00 AM 86.0 °F 95.1 °F 75.2 °F 70% 29.77 in 6.2 mi South 5.8 mph - N/A   Scattered Clouds
8:30 AM 87.8 °F 97.6 °F 75.2 °F 66% 29.80 in 6.2 mi South 4.6 mph - N/A   Scattered Clouds
9:00 AM 89.6 °F 99.8 °F 75.2 °F 62% 29.80 in 6.2 mi South 5.8 mph - N/A   Scattered Clouds
9:30 AM 89.6 °F 99.8 °F 75.2 °F 62% 29.80 in 6.2 mi SSW 5.8 mph - N/A   Scattered Clouds
10:00 AM 89.6 °F 98.2 °F 73.4 °F 59% 29.80 in 6.2 mi SSW 5.8 mph - N/A   Scattered Clouds
10:30 AM 91.4 °F 98.4 °F 71.6 °F 52% 29.80 in 6.2 mi SSW 5.8 mph - N/A   Scattered Clouds
11:00 AM 93.2 °F 100.5 °F 71.6 °F 49% 29.77 in 6.2 mi SSW 8.1 mph - N/A   Scattered Clouds
11:30 AM 95.0 °F 103.2 °F 71.6 °F 47% 29.77 in 6.2 mi SW 10.4 mph - N/A   Scattered Clouds
12:00 PM 93.2 °F 100.5 °F 71.6 °F 49% 29.77 in 6.2 mi SSW 3.5 mph - N/A   Scattered Clouds
12:30 PM 95.0 °F 101.3 °F 69.8 °F 44% 29.77 in 6.2 mi SW 8.1 mph - N/A   Scattered Clouds
1:00 PM 95.0 °F 101.3 °F 69.8 °F 44% 29.74 in 6.2 mi SSW 8.1 mph - N/A   Scattered Clouds
1:30 PM 96.8 °F 101.8 °F 68.0 °F 39% 29.71 in 6.2 mi SW 11.5 mph - N/A   Scattered Clouds
2:00 PM 96.8 °F 101.8 °F 68.0 °F 39% 29.71 in 6.2 mi SSW 10.4 mph - N/A   Scattered Clouds
2:30 PM 96.8 °F 101.8 °F 68.0 °F 39% 29.68 in 6.2 mi SW 10.4 mph - N/A   Scattered Clouds
3:00 PM 95.0 °F 103.2 °F 71.6 °F 47% 29.68 in 6.2 mi SSW 11.5 mph - N/A   Scattered Clouds
3:11 PM 86.0 °F 96.9 °F 77.0 °F 74% 29.68 in 5.6 mi West 12.7 mph - N/A Rain Rain
3:39 PM 84.2 °F 90.9 °F 73.4 °F 70% 29.68 in 5.0 mi West 11.5 mph - N/A Rain Light Rain
4:00 PM 89.6 °F 98.2 °F 73.4 °F 59% 29.68 in 6.2 mi WSW 10.4 mph - N/A   Scattered Clouds
4:30 PM 89.6 °F 96.2 °F 71.6 °F 55% 29.68 in 6.2 mi WSW 9.2 mph - N/A   Scattered Clouds
5:00 PM 89.6 °F 96.2 °F 71.6 °F 55% 29.68 in 6.2 mi SE 10.4 mph - N/A   Scattered Clouds
5:30 PM 86.0 °F 95.1 °F 75.2 °F 70% 29.68 in 5.0 mi South 11.5 mph 23.0 mph N/A Rain Light Rain
5:36 PM 82.4 °F 89.5 °F 75.2 °F 79% 29.68 in 3.1 mi SSE 11.5 mph - N/A Rain Rain
6:00 PM 84.2 °F 90.9 °F 73.4 °F 70% 29.68 in 5.6 mi South 10.4 mph - N/A Rain Light Rain
6:30 PM 84.2 °F 92.3 °F 75.2 °F 74% 29.71 in 5.0 mi South 9.2 mph - N/A   Mostly Cloudy
7:00 PM 84.2 °F 92.3 °F 75.2 °F 74% 29.71 in 5.0 mi South 11.5 mph - N/A Rain Light Rain
7:30 PM 84.2 °F 92.3 °F 75.2 °F 74% 29.74 in 5.0 mi South 11.5 mph - N/A Rain Light Rain
8:00 PM 84.2 °F 92.3 °F 75.2 °F 74% 29.74 in 5.0 mi South 10.4 mph - N/A   Mostly Cloudy
8:30 PM 84.2 °F 92.3 °F 75.2 °F 74% 29.74 in 5.0 mi South 6.9 mph - N/A   Mostly Cloudy
9:00 PM 82.4 °F 89.5 °F 75.2 °F 79% 29.77 in 5.0 mi South 9.2 mph - N/A   Mostly Cloudy
9:30 PM 82.4 °F 89.5 °F 75.2 °F 79% 29.77 in 5.0 mi South 5.8 mph - N/A   Mostly Cloudy
10:00 PM 82.4 °F 89.5 °F 75.2 °F 79% 29.77 in 5.0 mi South 6.9 mph - N/A   Mostly Cloudy
10:30 PM 82.4 °F 89.5 °F 75.2 °F 79% 29.80 in 5.0 mi South 4.6 mph - N/A   Scattered Clouds
11:00 PM 82.4 °F 89.5 °F 75.2 °F 79% 29.80 in 5.0 mi South 3.5 mph - N/A   Scattered Clouds
11:30 PM 82.4 °F 89.5 °F 75.2 °F 79% 29.80 in 5.0 mi South 5.8 mph - N/A   Scattered Clouds